[[{"header":{"parameterUnit":"m.s-1","parameterCategory":1,"la1":30.2991,"la2":30.254,"lo1":-89.0895,"lo2":-89.0444,"dy":0.0017,"dx":0.0017,"nx":28,"ny":28,"refTime":"2025-03-09T09:00:00:Z","depth":0,"parameterNumber":2,"parameterNumberName":"U-component_of_WINDS"},"data":[0,0,0,0,0,0,0,0,0,0,0,0,0,0,0,0,0,0,0,0,0,0,0,0,0,0,0,0,0,0,0,0,0,0,0,0,0,0,0,0,0,0,0,0,0,0,0,0,0,0,0,0,0,0,0,0,0,0,4.7478,4.7478,0,4.7462,4.7462,4.7462,4.7274,4.7269,4.7265,4.726,4.7252,4.7256,4.726,0,0,0,0,0,0,0,0,0,0,0,0,0,4.7352,4.7356,4.7478,4.7478,4.7478,4.7462,4.7462,4.7462,4.7275,4.7269,4.7263,4.7258,4.7251,4.7256,4.7261,0,0,0,0,0,0,0,0,0,0,0,0,0,4.7379,4.7357,4.7478,4.7382,4.7374,4.7462,4.7462,4.7462,4.7276,4.7269,4.7262,4.7255,4.7249,4.7255,4.7261,4.7443,0,0,4.7281,4.7283,0,0,0,0,0,0,0,0,4.7378,4.7384,4.7397,4.7389,4.7379,4.7363,4.7414,4.7456,4.7278,4.7314,4.726,4.7252,4.7295,4.7297,4.731,4.7442,4.7442,4.7281,4.7285,4.7288,4.7289,0,0,0,0,0,0,0,4.7376,4.7384,4.7472,4.7397,4.7387,4.7342,4.7338,4.7421,4.7345,4.731,4.7296,4.7296,4.7289,4.7305,4.7309,4.7442,4.7281,4.7287,4.729,4.7293,4.7722,4.7729,0,0,0,0,0,0,4.7387,4.7383,4.7472,4.7471,4.7361,4.735,4.7346,4.7375,4.7343,4.7331,4.7303,4.7288,4.7297,4.7301,4.7308,4.7519,4.7288,4.7294,4.7297,4.7715,4.7724,4.7732,0,0,0,0,0,0,4.7385,4.7397,4.7473,4.7424,4.743,4.736,4.7395,4.7379,4.7394,4.7337,4.7324,4.7332,4.7292,4.7299,4.741,4.7516,4.7296,4.7302,4.7706,4.7717,4.7728,4.7943,0,0,0,0,0,0,4.7382,4.7397,4.7464,4.7426,4.7433,4.7575,4.7401,4.7384,4.7404,4.7385,4.7362,4.7351,4.7287,4.7402,4.7416,4.7521,4.7307,4.7696,4.7711,4.7724,4.7926,4.796,4.7989,0,0,0,0,0,4.7378,4.7527,4.7469,4.748,4.7516,4.7581,4.7586,4.7506,4.7414,4.7482,4.7445,4.7352,4.7501,4.7415,4.743,4.7538,4.7689,4.7707,4.7723,4.7912,4.7954,4.7989,0,0,0,0,0,0,4.7583,4.7521,4.7455,4.7596,4.7595,4.755,4.7633,4.7553,4.7581,4.7562,4.7464,4.746,4.7588,4.7572,4.7478,4.7711,4.7579,4.76,4.7717,4.7756,4.7787,4.779,4.7312,0,0,0,0,0,4.7644,4.77,4.7643,4.7773,4.7776,4.7705,4.7731,4.7669,4.7665,4.7665,4.7636,4.7639,4.7685,4.7719,4.7759,4.7921,4.7915,4.8003,4.8034,4.806,4.8082,4.8167,4.8206,4.7788,4.7788,4.7788,0,0,4.7772,4.7745,4.7787,4.7814,4.7806,4.7869,4.7706,4.778,4.7826,4.7677,4.778,4.7759,4.7755,4.7893,4.7952,4.7885,4.8194,4.8082,4.8104,4.811,4.8189,4.8228,4.8264,4.78,4.7798,4.7796,0,0,4.8038,4.8022,4.8128,4.8123,4.8111,4.8062,4.8088,4.8054,4.8034,4.8134,4.8024,4.8078,4.8161,4.8162,4.8174,4.8437,4.8353,4.8452,4.862,4.8704,4.8737,4.8766,4.8862,4.8898,4.8472,4.8473,4.8473,0,4.82,4.8288,4.8194,4.8275,4.829,4.8153,4.8262,4.8261,4.8266,4.8281,4.8203,4.8303,4.8291,4.8427,4.8491,4.8504,4.8532,4.8457,4.8739,4.8767,4.8793,4.8884,4.892,4.8485,4.8484,4.8482,4.8481,0,4.8489,4.8551,4.8639,4.8643,4.8667,4.8762,4.8684,4.872,4.8655,4.8615,4.872,4.8699,4.8733,4.876,4.8699,4.8888,4.8847,4.8756,4.8622,4.8847,4.8931,4.8965,4.8503,4.8498,4.8495,4.8492,0,0,4.889,4.8836,4.887,4.887,4.8845,4.8893,4.8981,4.901,4.9045,4.905,4.9124,4.9195,4.911,4.9124,4.906,4.9134,4.9346,4.9034,4.9032,4.9096,4.9556,4.9628,4.9669,4.9288,4.9294,4.9299,4.9557,0,4.9148,4.9293,4.921,4.9368,4.9425,4.9294,4.937,4.9365,4.9329,4.9374,4.9333,4.9387,4.9269,4.9277,4.9343,4.9307,4.9438,4.9286,4.9359,4.9362,4.9368,4.9712,4.9789,5.0034,4.9589,4.9595,4.9599,0,4.9471,4.9487,4.9651,4.9613,4.9634,4.9705,4.9724,4.9767,4.9758,4.9727,4.974,4.9658,4.9743,4.9607,4.9724,4.9622,4.9646,4.9632,4.964,4.9647,4.9498,4.9733,5.011,5.0149,4.9649,4.9645,4.9641,0,4.9751,4.9814,4.9919,4.9922,4.9881,4.9933,4.9919,4.9902,4.9925,4.9942,4.9956,4.9984,5.0001,5.0026,4.9954,4.9861,5.0082,4.9939,5.0061,5.0064,5.0119,5.0117,5.0509,5.0127,5.0127,5.0126,5.0125,0,5.0052,5.0158,5.0044,5.011,5.0225,5.0127,5.0244,5.0216,5.0201,5.026,5.0147,5.0206,5.0106,5.0155,5.0099,5.0206,5.0214,5.0193,5.0178,5.0206,5.0209,5.0224,5.0207,5.0136,5.0133,5.0132,5.013,0,5.0387,5.0314,5.0421,5.0371,5.0361,5.0448,5.0406,5.0466,5.0419,5.0496,5.0508,5.0437,5.0489,5.0418,5.0463,5.0425,5.0573,5.053,5.0576,5.0565,5.0693,5.0683,5.1112,5.1164,5.0745,5.0749,5.0753,0,5.0587,5.0664,5.0621,5.065,5.0642,5.0692,5.0713,5.0618,5.0646,5.0639,5.07,5.0741,5.0769,5.0858,5.0812,5.0846,5.0806,5.0953,5.0811,5.0836,5.0812,5.081,5.0819,5.0984,5.0989,5.0993,5.0997,0,5.0949,5.0908,5.0941,5.0962,5.099,5.1003,5.1007,5.1039,5.0939,5.0976,5.1025,5.1047,5.109,5.1134,5.1154,5.1141,5.1055,5.104,5.1071,5.1104,5.1129,5.112,5.066,5.1033,5.1029,5.1027,5.1025,5.1023,5.1225,5.1288,5.1266,5.1307,5.1299,5.1305,5.1359,5.1317,5.1355,5.1382,5.1323,5.1387,5.1374,5.1392,5.1389,5.1439,5.1375,5.1419,5.1431,5.1445,5.1466,5.1116,5.1442,5.1441,5.144,5.1439,5.1438,0,5.1585,5.1563,5.1601,5.1609,5.1641,5.1549,5.1549,5.1584,5.164,5.1633,5.1662,5.1719,5.1759,5.1714,5.1746,5.1796,5.1757,5.1808,5.1806,5.1805,5.1519,5.1491,5.1839,5.1839,5.1839,5.1839,5.1838,5.1838,5.1777,5.1879,5.1835,5.1932,5.1909,5.1969,5.1976,5.1982,5.1975,5.2043,5.2075,5.2043,5.2021,5.205,5.2084,5.2069,5.2089,5.2155,5.2128,5.1864,5.1825,5.1788,5.1761,5.2159,5.216,5.2409,5.2412,5.2414]},{"header":{"parameterUnit":"m.s-1","parameterCategory":1,"la1":30.2991,"la2":30.254,"lo1":-89.0895,"lo2":-89.0444,"dy":0.0017,"dx":0.0017,"nx":28,"ny":28,"refTime":"2025-03-09T09:00:00:Z","depth":0,"parameterNumber":3,"parameterNumberName":"V-component_of_WINDS"},"data":[0,0,0,0,0,0,0,0,0,0,0,0,0,0,0,0,0,0,0,0,0,0,0,0,0,0,0,0,0,0,0,0,0,0,0,0,0,0,0,0,0,0,0,0,0,0,0,0,0,0,0,0,0,0,0,0,0,0,-0.287,-0.2871,0,-0.2988,-0.2989,-0.2991,-0.3069,-0.307,-0.307,-0.3071,-0.3194,-0.3196,-0.3199,0,0,0,0,0,0,0,0,0,0,0,0,0,-0.2715,-0.2717,-0.287,-0.2871,-0.2873,-0.2988,-0.2989,-0.2991,-0.3069,-0.307,-0.3071,-0.3071,-0.3193,-0.3196,-0.3199,0,0,0,0,0,0,0,0,0,0,0,0,0,-0.2802,-0.2718,-0.287,-0.2926,-0.2932,-0.2988,-0.299,-0.2992,-0.3069,-0.307,-0.3071,-0.3071,-0.3192,-0.3196,-0.32,-0.321,0,0,-0.3213,-0.3214,0,0,0,0,0,0,0,0,-0.2797,-0.2808,-0.2916,-0.2922,-0.2929,-0.3015,-0.298,-0.3065,-0.3069,-0.3017,-0.3071,-0.3072,-0.3134,-0.3143,-0.3163,-0.3215,-0.3221,-0.3213,-0.3215,-0.3217,-0.3218,0,0,0,0,0,0,0,-0.2791,-0.2803,-0.2917,-0.2917,-0.2925,-0.2946,-0.2959,-0.2996,-0.3069,-0.3022,-0.3028,-0.304,-0.3137,-0.3159,-0.3167,-0.3222,-0.3213,-0.3216,-0.3219,-0.3221,-0.3291,-0.3291,0,0,0,0,0,0,-0.2776,-0.2798,-0.2913,-0.292,-0.2864,-0.2948,-0.2963,-0.2986,-0.3069,-0.3083,-0.304,-0.3044,-0.3151,-0.3162,-0.3171,-0.319,-0.3217,-0.3221,-0.3223,-0.3292,-0.3291,-0.329,0,0,0,0,0,0,-0.2772,-0.2785,-0.2908,-0.2861,-0.2878,-0.295,-0.2976,-0.2988,-0.301,-0.3083,-0.3097,-0.3048,-0.3152,-0.3165,-0.32,-0.3195,-0.3223,-0.3227,-0.3293,-0.3292,-0.3291,-0.3225,0,0,0,0,0,0,-0.2767,-0.2784,-0.2787,-0.286,-0.288,-0.2934,-0.2975,-0.299,-0.3017,-0.3023,-0.3094,-0.3107,-0.3154,-0.3193,-0.3204,-0.3201,-0.323,-0.3293,-0.3292,-0.3291,-0.3228,-0.3222,-0.3217,0,0,0,0,0,-0.2762,-0.2764,-0.2787,-0.28,-0.2886,-0.2933,-0.2945,-0.2998,-0.3016,-0.3021,-0.3068,-0.3105,-0.3194,-0.3196,-0.3209,-0.3207,-0.3294,-0.3293,-0.3291,-0.3231,-0.3223,-0.3217,0,0,0,0,0,0,-0.2689,-0.2775,-0.2801,-0.2827,-0.2872,-0.2946,-0.2954,-0.2989,-0.303,-0.3035,-0.31,-0.3115,-0.3144,-0.3179,-0.318,-0.3222,-0.3248,-0.3249,-0.3198,-0.3192,-0.3186,-0.3177,-0.3233,0,0,0,0,0,-0.2676,-0.2706,-0.278,-0.2796,-0.2817,-0.2881,-0.2904,-0.2941,-0.2991,-0.3011,-0.3061,-0.3108,-0.3147,-0.3171,-0.3211,-0.3234,-0.3251,-0.3239,-0.3233,-0.3229,-0.3229,-0.3245,-0.3241,-0.3286,-0.3286,-0.3286,0,0,-0.2649,-0.27,-0.2715,-0.2782,-0.2822,-0.2853,-0.2897,-0.2928,-0.2952,-0.3016,-0.3052,-0.309,-0.3147,-0.3176,-0.3192,-0.3207,-0.3221,-0.3227,-0.3222,-0.3226,-0.3243,-0.3239,-0.3235,-0.3285,-0.3285,-0.3285,0,0,-0.2617,-0.2658,-0.2676,-0.2715,-0.2774,-0.2817,-0.2821,-0.2891,-0.2919,-0.2956,-0.3005,-0.3035,-0.31,-0.314,-0.3168,-0.3152,-0.3188,-0.3163,-0.3134,-0.315,-0.3146,-0.3143,-0.3139,-0.3136,-0.3163,-0.3163,-0.3163,0,-0.2577,-0.2625,-0.2681,-0.2709,-0.2738,-0.2797,-0.2817,-0.2853,-0.2922,-0.2941,-0.2957,-0.3041,-0.3084,-0.3124,-0.312,-0.3141,-0.3149,-0.3156,-0.3142,-0.314,-0.3138,-0.3135,-0.3133,-0.316,-0.316,-0.3161,-0.3161,0,-0.2573,-0.2605,-0.2613,-0.2678,-0.2708,-0.2732,-0.2793,-0.2817,-0.2852,-0.2894,-0.2932,-0.2985,-0.3038,-0.305,-0.3085,-0.3095,-0.3103,-0.3129,-0.3157,-0.3129,-0.3127,-0.3126,-0.3155,-0.3156,-0.3157,-0.3158,0,0,-0.2498,-0.2594,-0.2596,-0.2627,-0.2698,-0.2724,-0.2752,-0.2802,-0.2822,-0.2868,-0.2894,-0.2948,-0.2973,-0.3006,-0.3046,-0.3059,-0.3045,-0.3084,-0.3087,-0.3076,-0.3062,-0.3042,-0.3039,-0.3069,-0.3069,-0.3069,-0.3057,0,-0.2477,-0.2527,-0.258,-0.2613,-0.2644,-0.2702,-0.2726,-0.2772,-0.2812,-0.2846,-0.2891,-0.2929,-0.2959,-0.2979,-0.2995,-0.3043,-0.3043,-0.3044,-0.3094,-0.3095,-0.3079,-0.3038,-0.3017,-0.3003,-0.3057,-0.3057,-0.3057,0,-0.2459,-0.2502,-0.2537,-0.2606,-0.2621,-0.2642,-0.2694,-0.2724,-0.2779,-0.2808,-0.2844,-0.2887,-0.292,-0.2943,-0.2991,-0.2991,-0.3015,-0.3042,-0.3042,-0.305,-0.3074,-0.3045,-0.3,-0.2998,-0.3056,-0.3056,-0.3056,0,-0.2401,-0.2469,-0.2499,-0.2524,-0.2604,-0.2617,-0.2652,-0.2707,-0.2734,-0.278,-0.2799,-0.2848,-0.2875,-0.2912,-0.2968,-0.2979,-0.301,-0.3038,-0.3035,-0.3034,-0.3039,-0.3038,-0.2998,-0.3053,-0.3053,-0.3053,-0.3053,0,-0.2373,-0.2393,-0.2475,-0.2493,-0.2518,-0.2579,-0.2602,-0.2642,-0.269,-0.2719,-0.2772,-0.2798,-0.2869,-0.2904,-0.2947,-0.2981,-0.2992,-0.3017,-0.3029,-0.3013,-0.301,-0.303,-0.3032,-0.3053,-0.3053,-0.3053,-0.3053,0,-0.2313,-0.2368,-0.2406,-0.2479,-0.2498,-0.2513,-0.2576,-0.2598,-0.2641,-0.2677,-0.2689,-0.2757,-0.2801,-0.286,-0.2922,-0.2952,-0.298,-0.2997,-0.2961,-0.2968,-0.2963,-0.2963,-0.2935,-0.2935,-0.2988,-0.2988,-0.2987,0,-0.2291,-0.2308,-0.2383,-0.2406,-0.2438,-0.2474,-0.2502,-0.2563,-0.2591,-0.2655,-0.2669,-0.2717,-0.2759,-0.2826,-0.2883,-0.2931,-0.2951,-0.2938,-0.2958,-0.2943,-0.2952,-0.2951,-0.2953,-0.2933,-0.2932,-0.2931,-0.293,0,-0.2248,-0.2274,-0.2313,-0.2362,-0.2394,-0.2435,-0.2479,-0.2495,-0.2566,-0.2595,-0.264,-0.2672,-0.2736,-0.2784,-0.284,-0.2877,-0.2916,-0.2923,-0.2926,-0.291,-0.2889,-0.2902,-0.2948,-0.2924,-0.2924,-0.2925,-0.2925,-0.2926,-0.2207,-0.2225,-0.2281,-0.2323,-0.2362,-0.2402,-0.2426,-0.2472,-0.2511,-0.2567,-0.2601,-0.2645,-0.2702,-0.2781,-0.2816,-0.2853,-0.2868,-0.2871,-0.2872,-0.2872,-0.2867,-0.2882,-0.2863,-0.2864,-0.2864,-0.2864,-0.2864,0,-0.2167,-0.2206,-0.2244,-0.2303,-0.2337,-0.2369,-0.242,-0.2446,-0.2484,-0.2533,-0.2572,-0.2625,-0.2672,-0.2732,-0.2784,-0.2801,-0.2821,-0.2813,-0.2813,-0.2821,-0.285,-0.2844,-0.2797,-0.2797,-0.2797,-0.2797,-0.2797,-0.2797,-0.215,-0.2183,-0.2216,-0.227,-0.2309,-0.2352,-0.2378,-0.2416,-0.2455,-0.2512,-0.2551,-0.2589,-0.2643,-0.2699,-0.2744,-0.2761,-0.2778,-0.2764,-0.2786,-0.2813,-0.2819,-0.2824,-0.2819,-0.2767,-0.2767,-0.2755,-0.2755,-0.2754]}]]